Regional Weather Roundup
Issued by NWS State College, PA

Home | Current Version | Previous Version | Text Only | Print | Product List | Glossary On
Versions: 1 2 3 4 5 6 7 8 9 10 11 12 13 14 15 16 17 18 19 20 21 22 23 24 25 26 27 28 29 30 31 32 33 34 35 36 37 38 39 40 41 42 43 44 45 46 47 48 49 50
000
ASUS41 KCTP 261803
RWRCTP

REGIONAL WEATHER ROUNDUP
NATIONAL WEATHER SERVICE STATE COLLEGE PA
100 PM EST MON JAN 26 2015

Note: "fair" indicates few or no clouds below 12,000 feet with no
significant weather and/or obstructions to visibility.

* = STATION THAT DOES NOT REPORT PRECIPITATION /E.G. RAIN...SNOW...ETC/
    THUNDER OR FOG.

PAZ002>004-007>009-013>016-020>023-029>032-261900-
WESTERN PENNSYLVANIA

CITY           SKY/WX    TMP DP  RH WIND       PRES   REMARKS
ERIE           LGT SNOW  21  15  78 NE14      29.82F WCI   8
MEADVILLE      LGT SNOW  22  15  75 NE8       29.73F WCI  12
FRANKLIN*      CLOUDY    21  16  79 NE6       29.73F WCI  14
NEW CASTLE     LGT SNOW  23  19  85 N9        29.75F FOG     WCI  13
BEAVER COUNTY  LGT SNOW  25  21  86 N9        29.71F VSB 1
BUTLER*        CLOUDY    25  21  86 N8        29.72F VSB 3/4
PITTSBURGH INT SNOW      25  23  92 N12       29.70F VSB 1/2 WCI  14
PITTSBURGH     SNOW      28  23  81 N8        29.67F VSB 1/2
INDIANA*       FOG       25  23  93 E7        29.73F VSB 1/2
LATROBE        LGT SNOW  30  28  93 VRB7      29.69F
WASHINGTON CO* CLOUDY    27  25  93 CALM      29.70S VSB 1
$$

PAZ004>006-010>012-017>019-024>028-033>037-041-042-045-046-049>053-261900-
CENTRAL PENNSYLVANIA

CITY           SKY/WX    TMP DP  RH WIND       PRES   REMARKS
BRADFORD       LGT SNOW  19  13  77 E7        29.70F VSB 1   WCI  10
DUBOIS         SNOW      21  17  84 E13       29.69F VSB 1/2 WCI   9
CLEARFIELD     SNOW      19  15  84 NE9       29.74F VSB 1/2 WCI   8
JOHNSTOWN      LGT SNOW  23  20  88 VRB5      29.64F FOG
ALTOONA        LGT SNOW  21  18  88 NE7       29.73F FOG     WCI  12
STATE COLLEGE  LGT SNOW  19  16  86 NE10      29.77F VSB 1   WCI   8
WILLIAMSPORT   LGT SNOW  23  18  81 E5        29.84F
SELINSGROVE    FLURRIES  25  19  78 NE7       29.83F
FT INDIANTOWN  LGT SNOW  22  18  83 E7        29.82F WCI  14
CAPITAL CITY   CLOUDY    24  18  77 NE9       29.82F WCI  14
HARRISBURG     LGT SNOW  23  18  81 NE7       29.81F WCI  15
YORK           CLOUDY    25  21  85 NE7       29.78F
$$

PAZ038>040-043-044-047-048-054-055-060>062-067>071-261900-
EASTERN PENNSYLVANIA

CITY           SKY/WX    TMP DP  RH WIND       PRES   REMARKS
SCRANTON       CLOUDY    23  13  65 NE7       29.82F HAZE    WCI  15
MOUNT POCONO   LGT SNOW  16  11  80 E12G22    29.76F WCI   3
ALLENTOWN      LGT SNOW  20  13  74 NE16      29.86F WCI   6
QUAKERTOWN*    NOT AVBL
READING        MIX PCPN  21  15  78 N12       29.83F WCI   9
LANCASTER      LGT SNOW  25  20  81 E10       29.80F WCI  15
COATESVILLE    LGT SNOW  27  23  86 NE10G21   29.77F
POTTSTOWN      CLOUDY    24  18  77 NE15G23   29.84F WCI  11
BLUE BELL      CLOUDY    30  23  74 NE9       29.82F
DOYLESTOWN     LGT SNOW  24  19  81 NE13G23   29.83F WCI  12
WILLOW GROVE   NOT AVBL
NORTH PHILA    LGT SNOW  30  21  69 NE15G28   29.85S
PHILADELPHIA   LGT SNOW  30  25  81 NE20G25   29.82F
$$


USA.gov is the U.S. government's official web portal to all federal, state and local government web resources and services.